Retour au catalogue

SBS 6

ActifCommunicationsGEO
NORAD 20872·PAYLOAD·🇺🇸 United States

Lancé Oct 12, 1990 depuis Guiana Space Centre

Loading…

TLE

FraisSource: Space-Track

Époque: Sep 14, 2026, 10:45 UTC

1 20872U 90091A   26257.44792763  .00000042  00000-0  00000-0 0  9998
2 20872  12.7713  28.0932 0008172 155.7200 207.9980  0.98990773 46988

Suivez SBS 6 en temps réel avec AllMySat

Download on the App Store